period_start,C,m1,H,J0,J1,J2,J3,J4,J5,JA,JB,JC,JD,JJ,JK,JN,#
2015-11-17 00:01:11,0.02,0.14,0.00,19.94,24.22,27.73,14.90,47.00,1036.63,2049.00,3517.20,3225.64,3552.90,599.71,613.88,11.56,0000 0000 0000 0000 000000
2015-11-17 00:06:12,0.02,0.15,0.00,19.94,24.23,27.78,14.99,47.03,1036.64,2049.00,3516.94,3225.04,3552.14,600.22,614.37,11.61,0000 0000 0000 0000 000000
2015-11-17 00:11:13,0.01,0.15,0.00,19.95,24.25,27.76,14.95,47.07,1036.63,2049.00,3516.22,3224.99,3552.00,599.77,613.76,11.66,0000 0000 0000 0000 000000
2015-11-17 00:16:15,0.02,0.15,0.00,19.98,24.26,27.81,15.02,47.12,1036.64,2049.00,3515.93,3224.51,3551.67,600.14,614.19,11.71,0000 0000 0000 0000 000000
2015-11-17 00:21:16,0.02,0.15,0.00,19.99,24.27,27.82,14.98,47.01,1036.63,2048.99,3515.18,3224.03,3551.04,600.07,614.07,11.76,0000 0000 0000 0000 000000
2015-11-17 00:26:17,0.00,0.15,0.00,19.99,24.29,27.84,14.89,47.11,1036.64,2048.99,3514.96,3223.99,3550.84,599.67,613.65,11.81,0000 0000 0000 0000 000000
2015-11-17 00:31:18,0.04,0.15,0.00,20.03,24.30,27.86,14.94,47.12,1036.63,2048.97,3514.17,3223.40,3550.07,599.88,613.77,11.86,0000 0000 0000 0000 000000
2015-11-17 00:36:19,0.00,0.15,0.00,20.04,24.32,27.83,14.95,47.12,1036.62,2048.94,3513.98,3223.01,3549.96,600.07,613.96,11.91,0000 0000 0000 0000 000000
2015-11-17 00:41:21,0.02,0.15,0.00,20.05,24.33,27.90,14.98,47.12,1036.63,2048.88,3513.28,3222.95,3549.28,600.19,613.98,11.96,0000 0000 0000 0000 000000
2015-11-17 00:46:22,0.01,0.15,0.00,20.07,24.35,27.94,14.89,47.00,1036.64,2048.82,3512.97,3222.35,3549.00,599.74,613.60,12.01,0000 0000 0000 0000 000000
2015-11-17 00:51:24,-0.01,0.15,0.00,20.07,24.36,27.85,14.95,47.16,1036.64,2048.46,3512.21,3222.01,3548.52,599.70,613.46,12.06,0000 0000 0000 0000 000000
2015-11-17 00:56:25,-0.00,0.15,0.00,20.09,24.37,27.91,15.01,47.16,1036.64,2048.25,3511.94,3221.76,3548.01,600.06,613.86,12.11,0000 0000 0000 0000 000000
2015-11-17 01:01:26,0.02,0.15,0.00,20.09,24.39,27.90,15.08,47.26,1036.64,2048.08,3511.15,3221.07,3547.60,600.52,614.36,12.16,0000 0000 0000 0000 000000
2015-11-17 01:06:27,0.02,0.16,0.00,20.11,24.41,27.96,14.99,47.02,1036.64,2048.07,3510.47,3220.94,3547.02,600.11,613.77,12.21,0000 0000 0000 0000 000000
2015-11-17 01:11:28,0.04,0.16,0.00,20.14,24.42,27.97,14.95,47.04,1036.64,2048.04,3509.55,3220.11,3546.25,599.98,613.61,12.26,0000 0000 0000 0000 000000
2015-11-17 01:16:30,0.03,0.16,0.00,20.15,24.44,27.96,14.97,47.08,1036.61,2048.02,3508.71,3219.56,3545.71,600.16,613.76,12.31,0000 0000 0000 0000 000000
2015-11-17 01:21:31,0.03,0.16,0.00,20.17,24.45,27.97,15.13,47.19,1036.60,2048.04,3507.79,3219.00,3544.99,600.41,614.07,12.36,0000 0000 0000 0000 000000
2015-11-17 01:26:32,0.04,0.16,0.00,20.19,24.47,27.99,14.92,46.96,1036.63,2048.00,3506.83,3218.34,3544.17,599.86,613.40,12.41,0000 0000 0000 0000 000000
2015-11-17 01:31:33,0.02,0.16,0.00,20.21,24.48,27.96,14.98,47.14,1036.62,2048.00,3505.91,3217.84,3543.66,600.21,613.71,12.46,0000 0000 0000 0000 000000
2015-11-17 01:36:35,0.04,0.17,0.00,20.22,24.50,28.04,14.94,47.17,1036.49,2048.01,3504.92,3217.05,3542.85,599.79,613.24,12.51,0000 0000 0000 0000 000000
2015-11-17 01:41:36,0.04,0.17,0.00,20.22,24.50,28.05,14.98,47.25,1036.25,2048.00,3504.05,3216.37,3542.05,600.01,613.31,12.56,0000 0000 0000 0000 000000
2015-11-17 01:46:37,0.03,0.17,0.00,20.22,24.52,28.07,15.01,47.21,1036.19,2048.00,3503.22,3215.85,3541.41,600.07,613.34,12.61,0000 0000 0000 0000 000000
2015-11-17 01:51:38,0.03,0.17,0.00,20.25,24.52,28.09,14.90,47.23,1036.18,2047.99,3502.29,3215.06,3540.82,599.97,613.11,12.66,0000 0000 0000 0000 000000
2015-11-17 01:56:39,0.03,0.17,0.00,20.27,24.52,28.10,14.96,47.23,1036.17,2047.98,3501.56,3214.66,3540.04,599.96,613.15,12.71,0000 0000 0000 0000 000000
2015-11-17 02:01:40,0.04,0.18,0.00,20.27,24.53,28.16,14.92,47.22,1036.16,2047.96,3500.53,3213.91,3539.23,600.22,613.34,12.76,0000 0000 0000 0000 000000
2015-11-17 02:06:41,0.04,0.18,0.00,20.27,24.54,28.17,14.92,47.40,1036.16,2047.96,3499.66,3213.18,3538.35,599.68,612.81,12.81,0000 0000 0000 0000 000000
2015-11-17 02:11:43,0.04,0.18,0.00,20.29,24.54,28.15,15.00,47.42,1036.17,2047.97,3498.68,3212.65,3537.63,600.13,613.35,12.86,0000 0000 0000 0000 000000
2015-11-17 02:16:44,0.04,0.18,0.00,20.29,24.55,28.24,15.02,47.29,1036.21,2047.96,3497.58,3211.86,3536.75,600.14,613.28,12.92,0000 0000 0000 0000 000000
2015-11-17 02:21:46,0.03,0.19,0.00,20.29,24.55,28.21,15.00,47.34,1036.32,2047.97,3496.83,3211.07,3536.02,600.11,613.33,12.97,0000 0000 0000 0000 000000
2015-11-17 02:26:47,0.02,0.19,0.00,20.29,24.55,28.23,14.96,47.28,1036.21,2047.95,3496.02,3210.83,3535.49,600.11,613.12,13.02,0000 0000 0000 0000 000000
2015-11-17 02:31:48,0.03,0.19,0.00,20.29,24.55,28.25,15.01,47.40,1036.20,2047.92,3495.22,3210.06,3534.98,600.19,613.20,13.07,0000 0000 0000 0000 000000
2015-11-17 02:36:49,0.01,0.19,0.00,20.30,24.55,28.25,14.90,47.14,1036.21,2047.93,3494.94,3209.97,3534.23,600.05,613.16,13.12,0000 0000 0000 0000 000000
2015-11-17 02:41:51,0.04,0.19,0.00,20.31,24.55,28.22,14.95,47.10,1036.17,2047.97,3494.14,3209.30,3533.91,600.03,613.09,13.17,0000 0000 0000 0000 000000
2015-11-17 02:46:52,0.03,0.19,0.00,20.29,24.55,28.23,15.04,47.14,1036.16,2047.92,3493.34,3208.84,3533.04,600.13,613.14,13.22,0000 0000 0000 0000 000000
2015-11-17 02:51:54,0.04,0.20,0.00,20.29,24.56,28.30,15.00,47.22,1036.16,2047.90,3492.49,3208.05,3532.22,600.30,613.33,13.27,0000 0000 0000 0000 000000
2015-11-17 02:56:55,0.00,0.20,0.00,20.29,24.57,28.36,15.09,47.16,1036.16,2047.92,3491.98,3207.90,3531.98,599.75,612.84,13.32,0000 0000 0000 0000 000000
2015-11-17 03:01:56,0.05,0.20,0.00,20.29,24.57,28.25,14.98,47.17,1036.15,2047.89,3491.24,3207.15,3531.28,599.71,612.85,13.37,0000 0000 0000 0000 000000
2015-11-17 03:06:57,-0.00,0.20,0.00,20.29,24.57,28.31,14.97,47.19,1036.16,2047.78,3490.94,3206.99,3530.98,599.98,613.27,13.42,0000 0000 0000 0000 000000
2015-11-17 03:11:58,0.03,0.20,0.00,20.29,24.57,28.34,14.92,47.08,1036.15,2047.74,3490.13,3206.59,3530.41,599.91,612.92,13.47,0000 0000 0000 0000 000000
2015-11-17 03:16:59,0.01,0.20,0.00,20.29,24.57,28.32,15.07,47.19,1036.16,2047.80,3489.86,3206.04,3530.02,600.29,613.33,13.52,0000 0000 0000 0000 000000
2015-11-17 03:22:01,0.02,0.20,0.00,20.30,24.58,28.30,14.81,46.81,1036.16,2047.77,3489.06,3205.92,3529.67,599.48,612.57,13.57,0000 0000 0000 0000 000000
2015-11-17 03:27:02,0.03,0.20,0.00,20.31,24.59,28.31,14.89,46.97,1036.24,2047.70,3488.34,3205.14,3529.01,599.92,613.09,13.62,0000 0000 0000 0000 000000
2015-11-17 03:32:04,0.01,0.20,0.00,20.30,24.60,28.33,14.91,46.90,1036.48,2047.37,3487.45,3204.58,3528.27,600.05,613.29,13.67,0000 0000 0000 0000 000000
2015-11-17 03:37:05,0.05,0.21,0.00,20.30,24.60,28.33,14.91,46.88,1036.62,2047.31,3486.32,3203.77,3527.41,599.75,613.10,13.72,0000 0000 0000 0000 000000
2015-11-17 03:42:06,0.05,0.21,0.00,20.32,24.60,28.33,14.93,46.91,1036.64,2047.33,3484.94,3202.96,3526.46,599.84,613.21,13.77,0000 0000 0000 0000 000000
2015-11-17 03:47:07,0.02,0.21,0.00,20.33,24.61,28.33,14.91,46.90,1036.65,2047.19,3484.03,3202.09,3525.61,599.94,613.32,13.82,0000 0000 0000 0000 000000
2015-11-17 03:52:09,0.04,0.21,0.00,20.34,24.62,28.36,15.01,47.01,1036.67,2047.33,3483.31,3201.99,3525.03,600.16,613.73,13.87,0000 0000 0000 0000 000000
2015-11-17 03:57:10,0.01,0.21,0.00,20.34,24.62,28.33,14.91,46.88,1036.72,2047.32,3482.95,3201.39,3524.82,599.82,613.13,13.92,0000 0000 0000 0000 000000
2015-11-17 04:02:11,0.01,0.22,0.00,20.37,24.64,28.30,14.95,46.97,1036.73,2047.13,3482.17,3201.00,3524.09,600.03,613.26,13.97,0000 0000 0000 0000 000000
2015-11-17 04:07:13,0.03,0.22,0.00,20.39,24.65,28.33,14.92,46.95,1036.77,2047.05,3481.66,3200.67,3523.69,599.96,613.20,14.02,0000 0000 0000 0000 000000
2015-11-17 04:12:14,0.04,0.22,0.00,20.40,24.66,28.35,14.95,46.84,1036.87,2047.02,3480.64,3199.84,3522.80,599.82,613.08,14.07,0000 0000 0000 0000 000000
2015-11-17 04:17:15,0.02,0.22,0.00,20.42,24.67,28.35,14.92,46.86,1036.89,2047.01,3480.00,3199.06,3522.04,600.06,613.33,14.12,0000 0000 0000 0000 000000
2015-11-17 04:22:16,0.02,0.22,0.00,20.42,24.69,28.31,15.01,46.92,1037.02,2047.01,3479.31,3198.99,3521.83,599.98,613.37,14.17,0000 0000 0000 0000 000000
2015-11-17 04:27:17,0.02,0.22,0.00,20.44,24.70,28.31,14.93,46.92,1037.11,2047.00,3478.94,3198.50,3521.10,599.97,613.27,14.22,0000 0000 0000 0000 000000
2015-11-17 04:32:19,0.02,0.22,0.00,20.45,24.72,28.30,14.95,46.83,1037.11,2047.00,3478.13,3198.02,3520.86,600.05,613.25,14.27,0000 0000 0000 0000 000000
2015-11-17 04:37:20,0.04,0.23,0.00,20.39,24.72,28.29,14.95,46.92,1037.11,2047.00,3477.46,3197.52,3520.09,600.10,613.52,14.32,0000 0000 0000 0000 000000
2015-11-17 04:42:22,0.01,0.23,0.00,20.20,24.75,28.25,14.92,46.97,1037.12,2047.00,3476.77,3197.00,3519.76,599.93,613.86,14.37,0000 0000 0000 0000 000000
2015-11-17 04:47:23,0.02,0.23,0.00,20.04,24.75,28.20,14.93,46.92,1037.12,2047.00,3476.02,3196.78,3519.03,599.90,614.06,14.42,0000 0000 0000 0000 000000
2015-11-17 04:52:24,0.02,0.23,0.00,19.98,24.76,28.19,15.07,46.97,1037.12,2047.00,3475.50,3196.09,3518.92,599.96,614.25,14.47,0000 0000 0000 0000 000000
2015-11-17 04:57:26,0.02,0.23,0.00,19.96,24.77,28.30,15.00,46.88,1037.12,2047.00,3474.73,3195.94,3518.14,600.07,614.52,14.52,0000 0000 0000 0000 000000
2015-11-17 05:02:27,0.03,0.23,0.00,19.92,24.77,28.34,15.07,46.97,1037.12,2047.00,3474.02,3195.19,3517.95,600.34,614.78,14.57,0000 0000 0000 0000 000000
2015-11-17 05:07:28,0.02,0.23,0.00,19.86,24.76,28.37,15.01,46.89,1037.12,2047.00,3473.62,3195.01,3517.36,600.02,614.33,14.62,0000 0000 0000 0000 000000
2015-11-17 05:12:29,0.01,0.24,0.00,19.81,24.75,28.34,14.94,46.92,1037.12,2047.00,3473.01,3194.97,3517.01,600.05,614.72,14.67,0000 0000 0000 0000 000000
2015-11-17 05:17:30,0.03,0.24,0.00,19.76,24.74,28.31,15.01,46.97,1037.12,2047.00,3472.69,3194.31,3516.93,600.02,614.88,14.72,0000 0000 0000 0000 000000
2015-11-17 05:22:31,0.02,0.24,0.00,19.74,24.72,28.31,15.00,46.93,1037.12,2047.00,3472.04,3194.02,3516.45,599.90,614.73,14.77,0000 0000 0000 0000 000000
2015-11-17 05:27:32,0.00,0.24,0.00,19.72,24.71,28.27,15.00,46.99,1037.11,2047.00,3471.99,3194.00,3516.04,599.84,614.75,14.82,0000 0000 0000 0000 000000
2015-11-17 05:32:34,0.01,0.24,0.00,19.72,24.69,28.26,15.04,46.92,1037.11,2047.00,3471.47,3193.91,3515.99,599.69,614.59,14.87,0000 0000 0000 0000 000000
2015-11-17 05:37:35,0.02,0.24,0.00,19.71,24.67,28.24,15.01,47.06,1037.11,2047.00,3471.01,3193.16,3515.73,599.93,614.74,14.92,0000 0000 0000 0000 000000
2015-11-17 05:42:36,0.01,0.24,0.00,19.73,24.65,28.17,15.00,47.10,1037.06,2047.00,3470.79,3193.00,3515.05,599.75,614.56,14.97,0000 0000 0000 0000 000000
2015-11-17 05:47:37,0.01,0.24,0.00,19.75,24.63,28.17,14.99,46.95,1036.91,2047.00,3470.21,3193.00,3515.00,600.02,614.71,15.02,0000 0000 0000 0000 000000
2015-11-17 05:52:39,0.00,0.24,0.00,19.78,24.61,28.13,15.03,47.04,1036.81,2047.00,3470.01,3192.91,3514.96,599.88,614.33,15.07,0000 0000 0000 0000 000000
2015-11-17 05:57:40,0.01,0.24,0.00,19.76,24.60,28.10,15.00,47.05,1036.91,2047.03,3469.99,3192.77,3514.82,599.78,614.34,15.12,0000 0000 0000 0000 000000
2015-11-17 06:02:42,0.03,0.24,0.00,19.72,24.58,28.12,15.01,47.15,1037.09,2047.03,3469.46,3192.19,3514.17,600.03,614.90,15.17,0000 0000 0000 0000 000000
2015-11-17 06:07:43,0.01,0.24,0.00,19.67,24.56,28.13,15.05,47.08,1037.12,2047.08,3468.98,3192.00,3514.01,600.34,615.37,15.23,0000 0000 0000 0000 000000
2015-11-17 06:12:44,0.03,0.25,0.00,19.64,24.55,28.14,15.03,47.02,1037.11,2047.30,3468.90,3191.95,3513.89,599.97,614.97,15.28,0000 0000 0000 0000 000000
2015-11-17 06:17:46,0.02,0.25,0.00,19.60,24.53,28.11,14.96,46.99,1037.07,2047.39,3468.37,3191.88,3513.43,599.89,614.97,15.33,0000 0000 0000 0000 000000
2015-11-17 06:22:47,0.04,0.25,0.00,19.50,24.52,28.11,15.00,47.18,1037.06,2047.72,3468.09,3191.89,3513.25,599.92,615.25,15.38,0000 0000 0000 0000 000000
2015-11-17 06:27:48,0.02,0.25,0.00,19.46,24.50,28.09,15.08,47.23,1037.11,2047.84,3468.01,3191.66,3513.10,599.95,615.36,15.43,0000 0000 0000 0000 000000
2015-11-17 06:32:50,0.02,0.25,0.00,19.41,24.49,28.09,15.07,47.16,1037.12,2047.90,3467.98,3191.12,3513.02,599.84,615.24,15.48,0000 0000 0000 0000 000000
2015-11-17 06:37:51,0.01,0.25,0.00,19.36,24.47,28.05,15.07,47.22,1037.11,2047.96,3467.58,3191.02,3513.00,599.97,615.60,15.53,0000 0000 0000 0000 000000
2015-11-17 06:42:53,0.00,0.25,0.00,19.31,24.45,28.06,15.14,47.22,1037.10,2047.97,3467.10,3191.00,3512.97,599.73,615.52,15.58,0000 0000 0000 0000 000000
2015-11-17 06:47:54,0.00,0.25,0.00,19.28,24.44,28.04,15.02,47.23,1037.11,2047.99,3467.00,3191.00,3512.90,600.15,615.94,15.63,0000 0000 0000 0000 000000
2015-11-17 06:52:56,0.00,0.25,0.00,19.23,24.42,28.00,15.07,47.17,1037.11,2047.99,3466.98,3190.99,3512.52,599.92,615.87,15.68,0000 0000 0000 0000 000000
2015-11-17 06:57:57,0.01,0.25,0.00,19.20,24.40,27.99,15.01,47.21,1037.10,2047.99,3466.54,3190.96,3512.11,600.03,616.10,15.73,0000 0000 0000 0000 000000
2015-11-17 07:02:59,0.01,0.25,0.00,19.17,24.38,27.94,15.05,47.27,1037.09,2048.00,3466.11,3190.78,3512.03,599.94,616.11,15.78,0000 0000 0000 0000 000000
2015-11-17 07:08:00,0.01,0.25,0.00,19.14,24.37,27.93,14.97,47.24,1037.07,2048.01,3466.00,3190.48,3512.00,599.99,616.09,15.83,0000 0000 0000 0000 000000
2015-11-17 07:13:01,0.01,0.26,0.00,19.14,24.35,27.89,15.16,47.37,1037.10,2048.03,3465.98,3190.27,3512.00,599.83,616.02,15.88,0000 0000 0000 0000 000000
2015-11-17 07:18:02,0.00,0.26,0.00,19.12,24.33,27.90,15.03,47.21,1037.11,2048.05,3465.93,3190.07,3511.98,599.90,616.04,15.93,0000 0000 0000 0000 000000
2015-11-17 07:23:04,0.01,0.26,0.00,19.10,24.31,27.86,15.08,47.22,1037.12,2048.06,3465.43,3190.01,3511.91,600.13,616.28,15.98,0000 0000 0000 0000 000000
2015-11-17 07:28:05,0.02,0.26,0.00,19.09,24.30,27.88,15.03,47.20,1037.11,2048.16,3465.02,3190.00,3511.60,599.78,615.95,16.03,0000 0000 0000 0000 000000
2015-11-17 07:33:06,0.02,0.26,0.00,19.08,24.27,27.84,14.98,47.23,1037.12,2048.46,3464.99,3190.00,3511.34,599.70,616.04,16.08,0000 0000 0000 0000 000000
2015-11-17 07:38:07,0.04,0.26,0.00,19.07,24.25,27.85,15.04,47.17,1037.12,2048.72,3464.94,3190.00,3511.03,600.02,616.32,16.13,0000 0000 0000 0000 000000
2015-11-17 07:43:09,0.01,0.26,0.00,19.07,24.23,27.84,14.95,47.24,1037.12,2048.90,3464.23,3189.98,3511.01,599.56,615.83,16.18,0000 0000 0000 0000 000000
2015-11-17 07:48:10,0.00,0.26,0.00,19.04,24.22,27.80,15.06,47.08,1037.12,2048.97,3464.00,3189.88,3511.00,600.15,616.40,16.23,0000 0000 0000 0000 000000
2015-11-17 07:53:11,0.01,0.26,0.00,19.04,24.20,27.75,15.08,47.23,1037.12,2048.98,3463.97,3189.39,3510.87,600.16,616.46,16.28,0000 0000 0000 0000 000000
2015-11-17 07:58:12,0.02,0.26,0.00,19.02,24.17,27.78,15.08,47.33,1037.12,2048.98,3463.54,3189.07,3510.25,600.10,616.52,16.33,0000 0000 0000 0000 000000
2015-11-17 08:03:14,0.00,0.26,0.00,19.02,24.15,27.76,15.08,47.21,1037.14,2048.99,3463.02,3189.01,3510.07,600.09,616.49,16.38,0000 0000 0000 0000 000000
2015-11-17 08:08:15,-0.00,0.27,0.00,18.99,24.13,27.75,15.12,47.19,1037.13,2048.99,3462.99,3189.00,3510.03,600.12,616.60,16.43,0000 0000 0000 0000 000000
2015-11-17 08:13:16,0.00,0.27,0.00,18.99,24.12,27.71,15.09,46.85,1037.13,2048.99,3462.91,3189.00,3509.99,600.06,616.38,16.48,0000 0000 0000 0000 000000
2015-11-17 08:18:18,0.01,0.27,0.00,18.98,24.10,27.69,15.10,47.23,1037.14,2049.00,3462.16,3188.99,3509.98,600.17,616.66,16.53,0000 0000 0000 0000 000000
2015-11-17 08:23:19,0.01,0.27,0.00,18.97,24.08,27.67,15.22,47.35,1037.14,2049.00,3461.99,3188.85,3509.68,599.97,616.43,16.58,0000 0000 0000 0000 000000
2015-11-17 08:28:21,0.02,0.27,0.00,18.97,24.06,27.70,15.05,47.19,1037.14,2049.01,3461.79,3188.41,3509.23,599.78,616.22,16.63,0000 0000 0000 0000 000000
2015-11-17 08:33:22,0.02,0.27,0.00,18.97,24.05,27.68,15.09,47.20,1037.15,2049.04,3461.16,3188.08,3509.02,600.20,616.71,16.68,0000 0000 0000 0000 000000
2015-11-17 08:38:24,0.00,0.27,0.00,18.95,24.02,27.67,15.07,47.11,1037.21,2049.05,3461.00,3188.01,3509.00,600.06,616.57,16.73,0000 0000 0000 0000 000000
2015-11-17 08:43:25,0.00,0.27,0.00,18.94,24.02,27.67,15.06,47.13,1037.34,2049.08,3460.98,3188.00,3508.89,599.79,616.49,16.78,0000 0000 0000 0000 000000
2015-11-17 08:48:26,0.02,0.27,0.00,18.94,24.00,27.68,14.99,47.11,1037.35,2049.07,3460.65,3187.98,3508.32,599.77,616.37,16.83,0000 0000 0000 0000 000000
2015-11-17 08:53:27,0.04,0.27,0.00,18.92,23.99,27.62,15.01,46.99,1037.27,2049.35,3460.08,3187.98,3508.09,599.95,616.57,16.88,0000 0000 0000 0000 000000
2015-11-17 08:58:28,0.04,0.27,0.00,18.92,23.97,27.64,15.15,47.16,1037.22,2049.71,3459.95,3187.61,3508.01,600.05,616.75,16.93,0000 0000 0000 0000 000000
2015-11-17 09:03:29,0.07,0.28,0.00,18.91,23.96,27.61,15.11,47.09,1037.19,2049.93,3458.86,3186.89,3507.53,599.90,616.51,16.98,0000 0000 0000 0000 000000
2015-11-17 09:08:31,0.05,0.28,0.00,18.90,23.95,27.62,15.06,47.16,1037.22,2049.92,3457.37,3186.01,3506.38,599.86,616.52,17.03,0000 0000 0000 0000 000000
2015-11-17 09:13:32,0.04,0.28,0.00,18.89,23.93,27.59,15.07,47.13,1037.28,2049.96,3456.46,3185.27,3505.97,600.07,616.76,17.08,0000 0000 0000 0000 000000
2015-11-17 09:18:33,0.01,0.28,0.00,18.89,23.92,27.55,15.06,46.95,1037.35,2049.97,3456.01,3185.02,3505.59,600.03,616.75,17.13,0000 0000 0000 0000 000000
2015-11-17 09:23:34,0.01,0.28,0.00,18.89,23.91,27.57,15.04,46.96,1037.43,2049.98,3455.90,3185.00,3505.06,599.96,616.81,17.18,0000 0000 0000 0000 000000
2015-11-17 09:28:36,0.04,0.29,0.00,18.88,23.90,27.55,15.14,47.12,1037.56,2049.97,3454.97,3184.51,3504.66,599.94,616.87,17.23,0000 0000 0000 0000 000000
2015-11-17 09:33:37,0.05,0.29,0.00,18.87,23.89,27.53,15.12,47.15,1037.58,2049.99,3453.68,3183.75,3503.81,600.06,616.98,17.28,0000 0000 0000 0000 000000
2015-11-17 09:38:38,0.03,0.29,0.00,18.87,23.87,27.52,15.09,46.98,1037.57,2049.98,3452.67,3183.03,3503.05,600.01,616.79,17.33,0000 0000 0000 0000 000000
2015-11-17 09:43:40,0.00,0.29,0.00,18.86,23.87,27.52,15.17,47.15,1037.56,2049.99,3452.01,3182.99,3503.00,599.99,616.93,17.38,0000 0000 0000 0000 000000
2015-11-17 09:48:41,0.02,0.29,0.00,18.84,23.85,27.55,15.10,47.02,1037.54,2050.00,3451.53,3182.81,3502.78,600.01,616.97,17.43,0000 0000 0000 0000 000000
2015-11-17 09:53:42,0.03,0.29,0.00,18.84,23.85,27.50,15.13,47.11,1037.55,2050.00,3451.02,3182.12,3502.08,600.04,617.01,17.48,0000 0000 0000 0000 000000
2015-11-17 09:58:44,0.00,0.29,0.00,18.83,23.83,27.48,15.08,47.16,1037.36,2050.00,3450.87,3182.01,3502.00,599.92,616.94,17.53,0000 0000 0000 0000 000000
2015-11-17 10:03:45,0.01,0.29,0.00,18.82,23.82,27.49,15.08,47.12,1037.25,2050.00,3450.19,3181.99,3501.84,599.99,616.83,17.58,0000 0000 0000 0000 000000
2015-11-17 10:08:46,0.02,0.30,0.00,18.82,23.82,27.46,15.04,47.06,1037.20,2050.00,3449.93,3181.57,3501.10,600.03,616.84,17.63,0000 0000 0000 0000 000000
2015-11-17 10:13:47,0.02,0.30,0.00,18.80,23.80,27.50,15.07,47.00,1037.22,2050.02,3449.13,3181.05,3501.00,599.91,616.72,17.68,0000 0000 0000 0000 000000
2015-11-17 10:18:49,0.02,0.30,0.00,18.79,23.80,27.44,15.12,47.21,1037.30,2050.02,3448.69,3180.98,3500.53,599.72,616.65,17.73,0000 0000 0000 0000 000000
2015-11-17 10:23:50,0.02,0.30,0.00,18.79,23.79,27.47,15.07,47.17,1037.21,2050.03,3448.03,3180.64,3500.03,600.09,616.94,17.78,0000 0000 0000 0000 000000
2015-11-17 10:28:52,0.02,0.30,0.00,18.78,23.77,27.49,15.07,46.96,1037.28,2050.03,3447.80,3180.05,3499.99,599.73,616.74,17.83,0000 0000 0000 0000 000000
2015-11-17 10:33:53,0.02,0.30,0.00,18.77,23.77,27.44,15.16,47.11,1037.34,2050.06,3446.96,3179.97,3499.32,599.81,616.74,17.88,0000 0000 0000 0000 000000
2015-11-17 10:38:54,0.03,0.30,0.00,18.77,23.76,27.44,15.05,47.14,1037.42,2050.06,3446.13,3179.25,3498.98,599.88,616.92,17.93,0000 0000 0000 0000 000000
2015-11-17 10:43:56,0.01,0.30,0.00,18.77,23.75,27.44,15.14,47.08,1037.50,2050.13,3446.00,3179.01,3498.54,600.15,617.18,17.98,0000 0000 0000 0000 000000
2015-11-17 10:48:57,0.02,0.31,0.00,18.75,23.75,27.40,15.08,47.07,1037.53,2050.22,3445.63,3178.99,3498.06,600.06,617.15,18.03,0000 0000 0000 0000 000000
2015-11-17 10:53:58,0.03,0.31,0.00,18.74,23.73,27.43,15.10,46.96,1037.55,2050.43,3445.02,3178.89,3497.99,600.00,617.10,18.08,0000 0000 0000 0000 000000
2015-11-17 10:58:59,0.06,0.31,0.00,18.74,23.72,27.42,15.05,47.17,1037.53,2050.70,3444.52,3178.16,3497.64,599.93,617.19,18.13,0000 0000 0000 0000 000000
2015-11-17 11:04:00,0.01,0.31,0.00,18.73,23.72,27.40,15.13,47.02,1037.56,2050.76,3444.00,3178.00,3497.04,599.98,617.15,18.18,0000 0000 0000 0000 000000
2015-11-17 11:09:01,0.02,0.31,0.00,18.72,23.70,27.37,15.02,46.99,1037.60,2050.85,3443.45,3177.93,3496.99,599.85,617.06,18.23,0000 0000 0000 0000 000000
2015-11-17 11:14:02,0.04,0.31,0.00,18.72,23.70,27.38,15.06,47.04,1037.61,2050.94,3442.97,3177.26,3496.47,600.17,617.32,18.28,0000 0000 0000 0000 000000
2015-11-17 11:19:04,0.01,0.32,0.00,18.72,23.69,27.38,14.98,47.08,1037.61,2050.94,3442.17,3177.00,3496.01,599.91,617.10,18.33,0000 0000 0000 0000 000000
2015-11-17 11:24:05,0.02,0.32,0.00,18.72,23.67,27.34,15.10,46.96,1037.61,2050.95,3441.77,3176.75,3495.86,600.19,617.47,18.38,0000 0000 0000 0000 000000
2015-11-17 11:29:06,0.03,0.32,0.00,18.70,23.67,27.35,15.10,47.09,1037.61,2050.95,3441.06,3176.10,3495.12,599.99,617.23,18.43,0000 0000 0000 0000 000000
2015-11-17 11:34:07,0.01,0.32,0.00,18.69,23.67,27.36,15.06,47.08,1037.61,2050.97,3440.67,3176.00,3494.99,600.20,617.52,18.48,0000 0000 0000 0000 000000
2015-11-17 11:39:09,0.01,0.32,0.00,18.69,23.66,27.34,15.04,47.02,1037.61,2050.98,3440.04,3175.98,3494.87,600.02,617.39,18.53,0000 0000 0000 0000 000000
2015-11-17 11:44:10,0.02,0.32,0.00,18.69,23.65,27.32,15.09,47.02,1037.61,2050.99,3439.97,3175.52,3494.13,599.92,617.25,18.58,0000 0000 0000 0000 000000
2015-11-17 11:49:11,0.02,0.32,0.00,18.68,23.65,27.36,15.10,47.17,1037.61,2050.99,3439.23,3175.04,3494.00,599.99,617.28,18.63,0000 0000 0000 0000 000000
2015-11-17 11:54:12,0.01,0.32,0.00,18.67,23.65,27.35,15.10,47.02,1037.61,2050.99,3438.81,3174.98,3493.83,599.78,617.06,18.69,0000 0000 0000 0000 000000
2015-11-17 11:59:13,0.03,0.32,0.00,18.66,23.65,27.31,15.11,47.13,1037.61,2050.99,3438.07,3174.60,3493.07,600.04,617.49,18.74,0000 0000 0000 0000 000000
2015-11-17 12:04:15,0.01,0.33,0.00,18.66,23.65,27.30,15.10,47.13,1037.61,2050.99,3437.66,3174.03,3492.99,599.84,617.23,18.79,0000 0000 0000 0000 000000
2015-11-17 12:09:16,0.02,0.33,0.00,18.65,23.64,27.33,15.03,46.99,1037.61,2050.99,3437.01,3173.95,3492.50,599.51,616.99,18.84,0000 0000 0000 0000 000000
2015-11-17 12:14:17,0.03,0.33,0.00,18.64,23.64,27.31,15.13,47.17,1037.61,2050.99,3436.33,3173.33,3492.01,599.96,617.37,18.89,0000 0000 0000 0000 000000
2015-11-17 12:19:18,0.01,0.33,0.00,18.64,23.63,27.32,15.16,47.10,1037.61,2050.99,3435.87,3173.00,3491.74,600.14,617.42,18.94,0000 0000 0000 0000 000000
2015-11-17 12:24:19,0.02,0.33,0.00,18.64,23.62,27.31,15.08,47.22,1037.61,2050.99,3435.07,3172.82,3491.06,599.63,617.05,18.99,0000 0000 0000 0000 000000
2015-11-17 12:29:21,0.02,0.33,0.00,18.64,23.62,27.32,15.06,47.16,1037.61,2050.99,3434.69,3172.12,3490.97,599.93,617.36,19.04,0000 0000 0000 0000 000000
2015-11-17 12:34:22,0.02,0.33,0.00,18.63,23.62,27.28,15.07,47.01,1037.61,2050.99,3434.02,3171.99,3490.35,600.17,617.61,19.09,0000 0000 0000 0000 000000
2015-11-17 12:39:24,0.03,0.33,0.00,18.62,23.62,27.24,15.07,47.01,1037.61,2050.99,3433.40,3171.62,3490.00,599.69,617.35,19.14,0000 0000 0000 0000 000000
2015-11-17 12:44:25,0.01,0.34,0.00,18.62,23.60,27.25,15.11,47.07,1037.61,2051.00,3432.99,3171.03,3489.71,600.12,617.60,19.19,0000 0000 0000 0000 000000
2015-11-17 12:49:26,0.02,0.34,0.00,18.62,23.60,27.27,15.09,47.06,1037.61,2051.01,3432.32,3170.99,3489.07,600.07,617.48,19.24,0000 0000 0000 0000 000000
2015-11-17 12:54:27,0.01,0.34,0.00,18.61,23.60,27.29,15.13,47.20,1037.61,2051.02,3431.93,3170.59,3488.98,600.19,617.66,19.29,0000 0000 0000 0000 000000